Regional Weather Roundup
Issued by NWS Lake Charles, LA

Home | Current Version | Previous Version | Text Only | Print | Product List | Glossary On
Versions: 1 2 3 4 5 6 7 8 9 10 11 12 13 14 15 16 17 18 19 20 21 22 23 24 25 26 27 28 29 30 31 32 33 34 35 36 37 38 39 40 41 42 43 44 45 46 47 48 49 50
000
ASUS44 KLCH 051510
RWRLCH
RWRLCH
REGIONAL WEATHER ROUNDUP
NATIONAL WEATHER SERVICE LAKE CHARLES LA
1000 AM CDT TUE MAY 05 2015

Note: "fair" indicates few or no clouds below 12,000 feet with no
significant weather and/or obstructions to visibility.


ACROSS SOUTHEAST TEXAS

CITY           SKY/WX    TMP DP  RH WIND       PRES   REMARKS
BEAUMONT       CLOUDY    80  68  66 SE16G26   30.08R
BEAUMONT CITY  CLOUDY    76  69  76 SE14      30.09R
ORANGE         CLOUDY    78  63  61 SE15G21   30.11S
JASPER         NOT AVBL
$$

ACROSS CENTRAL LOUISIANA

CITY           SKY/WX    TMP DP  RH WIND       PRES   REMARKS
LEESVILLE      MOSUNNY   75  64  69 E14G21    30.12R
FULLERTON        N/A     78  64  61 SE9       30.12R
ALEXANDRIA INT CLOUDY    73  65  75 SE16G23   30.14S
ESLER FIELD    MOSUNNY   78  65  63 SE9       30.16S
DERIDDER         N/A     75  65  69 SE8G18    30.14S
OAKDALE        SUNNY     77  66  69 SE10G16   30.14S
OPELOUSAS      PTSUNNY   76  65  69 SE13G21   30.15R
$$

ACROSS SOUTHWEST AND SOUTH CENTRAL LOUISIANA

CITY           SKY/WX    TMP DP  RH WIND       PRES   REMARKS
SULPHUR        PTSUNNY   79  70  74 E12G17    30.12R
LAKE CHARLES   PTSUNNY   76  68  76 SE14      30.11R
CHENNAULT INT  SUNNY     77  66  69 SE14G21   30.12R
CAMERON PHI    SUNNY     77  66  69 SE22      30.13R
DEQUINCY       PTSUNNY   75  70  83 E9G17     30.12R
JENNINGS         N/A     76  66  71 SE14G21   30.12S
LAFAYETTE      MOSUNNY   76  66  71 SE8       30.15R
NEW IBERIA       N/A    N/A N/A N/A MISG      30.15R
ABBEVILLE        N/A     77  67  70 SE13G18   30.14S
PATTERSON      MOSUNNY  N/A N/A N/A SE15G22   30.16R
SALT POINT       N/A     76  69  79 SE10G17   30.13R
$$

SELECTED SITES ACROSS THE REGION

CITY           SKY/WX    TMP DP  RH WIND       PRES   REMARKS
HOUSTON BUSH   LGT RAIN  73  71  93 SE12G22   30.04R
HOUSTON HOBBY  PTSUNNY   79  71  76 SE10G20   30.03R
GALVESTON      PTSUNNY   79  72  79 SE21      30.06R
COLLEGE STAT   PTSUNNY   75  67  76 SE15G23   30.03S
CONROE         CLOUDY    78  68  71 SE17G24   30.04F
HUNTSVILLE     MOSUNNY   76  68  76 VRB6G17   30.05S
LUFKIN         CLOUDY    77  68  73 SE14      30.09R
SHREVEPORT     PTSUNNY   75  65  70 SE8       30.13R
MONROE         SUNNY     75  63  66 S10G18    30.19S
NATCHEZ MS     SUNNY     75  63  64 SE9       30.20S
BATON ROUGE    MOSUNNY   77  64  64 E9        30.18R
N.O. INTL ARPT MOSUNNY   79  61  53 SE17G24   30.17S
SLIDELL        PTSUNNY   77  68  73 E10G18    30.19R
$$

MARINE REPORTS

STATION/POSITION TIME  TEMP    WIND        PRES    VSBY  WAVE
                       AIR SEA DIR/SP/G                  HT/PER
                 (UTC) (F)     (DEG/KT/KT) (MB)    (MI)  (FT/S)
BUOY 30 S HIGH I 1450   76 75  110/ 19/ 21 1017.0R         5/ 5
SEA RIM ST PARK  1500   77     120/ 15/ 20 1019.2R
PORT ARTHUR      1400      72  130/ 11/ 16 1018.6R
SABINE PASS N    1400   76 75  130/ 19/ 24 1018.4R
TEXAS POINT      NOT AVBL
CALCASIEU PASS   1400   76 76  150/ 20/ 25   N/A
LK CHARLES BEACH 1400   74 71              1019.6R
MARSH ISLAND     1400   76     140/ 19/ 22   N/A           0
FRESH WATER LOCK 1400   76 76  120/ 15/ 20 1019.6R
AMERADA PASS     1400   74 69  100/  9/ 12 1020.4R
$$


USA.gov is the U.S. government's official web portal to all federal, state and local government web resources and services.